Time,TemperatureF,DewpointF,PressureIn,WindDirection,WindDirectionDegrees,WindSpeedMPH,WindSpeedGustMPH,Humidity,HourlyPrecipIn,Conditions,Clouds,dailyrainin,SoftwareType,DateUTC
2013-12-14 00:03:00,27.4,26.0,30.08,East,98,8.0,11.0,93,0.00,,,0.00,weatherlink.com 1.10,2013-12-14 06:03:00,
2013-12-14 00:18:00,27.4,26.0,30.07,East,98,8.0,11.0,93,0.00,,,0.00,weatherlink.com 1.10,2013-12-14 06:18:00,
2013-12-14 00:33:00,27.4,26.0,30.07,East,97,8.0,10.0,93,0.00,,,0.00,weatherlink.com 1.10,2013-12-14 06:33:00,
2013-12-14 00:48:00,27.4,26.0,30.07,ESE,110,9.0,10.0,93,0.00,,,0.00,weatherlink.com 1.10,2013-12-14 06:48:00,
2013-12-14 01:04:00,27.2,26.0,30.05,ESE,121,11.0,13.0,93,0.00,,,0.00,weatherlink.com 1.10,2013-12-14 07:04:00,
2013-12-14 01:19:00,27.2,26.0,30.05,East,96,8.0,12.0,93,0.00,,,0.00,weatherlink.com 1.10,2013-12-14 07:19:00,
2013-12-14 01:34:00,27.1,25.0,30.05,East,97,8.0,14.0,93,0.00,,,0.00,weatherlink.com 1.10,2013-12-14 07:34:00,
2013-12-14 01:49:00,27.0,25.0,30.04,East,91,8.0,14.0,93,0.00,,,0.00,weatherlink.com 1.10,2013-12-14 07:49:00,
2013-12-14 02:04:00,27.0,25.0,30.04,ESE,113,11.0,13.0,93,0.00,,,0.00,weatherlink.com 1.10,2013-12-14 08:04:00,
2013-12-14 02:19:00,27.1,25.0,30.04,East,88,10.0,13.0,93,0.00,,,0.00,weatherlink.com 1.10,2013-12-14 08:19:00,
2013-12-14 02:34:00,27.1,25.0,30.04,ESE,116,9.0,12.0,93,0.00,,,0.00,weatherlink.com 1.10,2013-12-14 08:34:00,
2013-12-14 02:49:00,27.1,25.0,30.03,ENE,73,7.0,14.0,93,0.00,,,0.00,weatherlink.com 1.10,2013-12-14 08:49:00,
2013-12-14 03:04:00,27.1,25.0,30.02,East,94,5.0,11.0,93,0.00,,,0.00,weatherlink.com 1.10,2013-12-14 09:04:00,
2013-12-14 03:19:00,27.2,26.0,30.01,East,98,13.0,14.0,93,0.00,,,0.00,weatherlink.com 1.10,2013-12-14 09:19:00,
2013-12-14 03:34:00,27.3,26.0,30.01,ESE,111,7.0,13.0,93,0.00,,,0.00,weatherlink.com 1.10,2013-12-14 09:34:00,
2013-12-14 03:49:00,27.4,26.0,30.02,ESE,117,4.0,12.0,93,0.00,,,0.00,weatherlink.com 1.10,2013-12-14 09:49:00,
2013-12-14 04:04:00,27.4,26.0,30.02,East,99,7.0,10.0,93,0.00,,,0.00,weatherlink.com 1.10,2013-12-14 10:04:00,
2013-12-14 04:20:00,27.5,26.0,30.02,ESE,116,7.0,10.0,93,0.00,,,0.00,weatherlink.com 1.10,2013-12-14 10:20:00,
2013-12-14 04:35:00,27.6,26.0,30.01,East,100,8.0,13.0,93,0.00,,,0.00,weatherlink.com 1.10,2013-12-14 10:35:00,
2013-12-14 04:50:00,27.6,26.0,30.01,ENE,78,2.0,9.0,93,0.00,,,0.00,weatherlink.com 1.10,2013-12-14 10:50:00,
2013-12-14 05:05:00,27.8,26.0,30.00,East,100,6.0,10.0,93,0.00,,,0.00,weatherlink.com 1.10,2013-12-14 11:05:00,
2013-12-14 05:20:00,27.8,26.0,30.00,East,90,6.0,9.0,93,0.00,,,0.00,weatherlink.com 1.10,2013-12-14 11:20:00,
2013-12-14 05:35:00,27.9,26.0,30.00,ESE,114,4.0,9.0,93,0.00,,,0.00,weatherlink.com 1.10,2013-12-14 11:35:00,
2013-12-14 05:50:00,28.0,26.0,30.02,East,100,5.0,9.0,93,0.00,,,0.00,weatherlink.com 1.10,2013-12-14 11:50:00,
2013-12-14 06:05:00,28.0,26.0,30.01,ESE,110,5.0,8.0,93,0.00,,,0.00,weatherlink.com 1.10,2013-12-14 12:05:00,
2013-12-14 06:20:00,28.1,26.0,30.01,ENE,60,2.0,8.0,93,0.00,,,0.00,weatherlink.com 1.10,2013-12-14 12:20:00,
2013-12-14 06:35:00,28.1,26.0,30.01,ENE,77,4.0,6.0,93,0.00,,,0.00,weatherlink.com 1.10,2013-12-14 12:35:00,
2013-12-14 06:50:00,28.3,27.0,30.00,East,83,3.0,8.0,93,0.00,,,0.00,weatherlink.com 1.10,2013-12-14 12:50:00,
2013-12-14 07:05:00,28.4,27.0,30.00,East,84,5.0,8.0,93,0.00,,,0.00,weatherlink.com 1.10,2013-12-14 13:05:00,
2013-12-14 07:20:00,28.5,27.0,30.01,East,81,3.0,8.0,93,0.00,,,0.00,weatherlink.com 1.10,2013-12-14 13:20:00,
2013-12-14 07:36:00,28.6,27.0,30.01,ENE,78,3.0,7.0,93,0.00,,,0.00,weatherlink.com 1.10,2013-12-14 13:36:00,
2013-12-14 07:51:00,28.8,27.0,30.01,ENE,78,1.0,9.0,93,0.00,,,0.00,weatherlink.com 1.10,2013-12-14 13:51:00,
2013-12-14 08:06:00,28.9,27.0,30.02,NNE,30,3.0,7.0,93,0.00,,,0.00,weatherlink.com 1.10,2013-12-14 14:06:00,
2013-12-14 08:21:00,28.8,27.0,30.02,ENE,63,4.0,9.0,93,0.00,,,0.00,weatherlink.com 1.10,2013-12-14 14:21:00,
2013-12-14 08:36:00,29.0,27.0,30.02,ENE,63,3.0,8.0,93,0.00,,,0.00,weatherlink.com 1.10,2013-12-14 14:36:00,
2013-12-14 08:51:00,29.2,28.0,30.03,ENE,66,1.0,7.0,94,0.00,,,0.00,weatherlink.com 1.10,2013-12-14 14:51:00,
2013-12-14 09:06:00,29.4,28.0,30.02,East,90,2.0,9.0,94,0.00,,,0.00,weatherlink.com 1.10,2013-12-14 15:06:00,
2013-12-14 09:21:00,29.6,28.0,30.03,NE,55,7.0,7.0,94,0.00,,,0.00,weatherlink.com 1.10,2013-12-14 15:21:00,
2013-12-14 09:36:00,29.3,28.0,30.03,NE,38,6.0,9.0,93,0.00,,,0.00,weatherlink.com 1.10,2013-12-14 15:36:00,
2013-12-14 09:51:00,29.3,28.0,30.03,East,81,2.0,10.0,93,0.00,,,0.00,weatherlink.com 1.10,2013-12-14 15:51:00,
2013-12-14 10:06:00,29.4,28.0,30.03,NNE,28,5.0,10.0,93,0.00,,,0.00,weatherlink.com 1.10,2013-12-14 16:06:00,
2013-12-14 10:21:00,29.4,28.0,30.03,ENE,59,5.0,10.0,93,0.00,,,0.00,weatherlink.com 1.10,2013-12-14 16:21:00,
2013-12-14 10:36:00,29.5,28.0,30.02,NNE,19,4.0,11.0,93,0.00,,,0.00,weatherlink.com 1.10,2013-12-14 16:36:00,
2013-12-14 10:51:00,29.6,28.0,30.02,ENE,65,8.0,10.0,93,0.00,,,0.00,weatherlink.com 1.10,2013-12-14 16:51:00,
2013-12-14 11:07:00,29.6,28.0,30.02,ENE,57,4.0,10.0,93,0.00,,,0.00,weatherlink.com 1.10,2013-12-14 17:07:00,
2013-12-14 11:22:00,29.6,28.0,30.01,ENE,72,4.0,12.0,93,0.00,,,0.00,weatherlink.com 1.10,2013-12-14 17:22:00,
2013-12-14 11:37:00,29.6,28.0,30.01,NNE,32,2.0,10.0,92,0.00,,,0.00,weatherlink.com 1.10,2013-12-14 17:37:00,
2013-12-14 11:52:00,29.4,27.0,30.01,NE,42,1.0,11.0,92,0.00,,,0.00,weatherlink.com 1.10,2013-12-14 17:52:00,
2013-12-14 12:07:00,29.2,27.0,30.01,ENE,59,1.0,10.0,92,0.00,,,0.00,weatherlink.com 1.10,2013-12-14 18:07:00,
2013-12-14 12:22:00,29.2,27.0,30.01,NNE,21,2.0,9.0,92,0.00,,,0.00,weatherlink.com 1.10,2013-12-14 18:22:00,
2013-12-14 12:37:00,29.3,27.0,30.00,NNE,26,2.0,7.0,92,0.00,,,0.00,weatherlink.com 1.10,2013-12-14 18:37:00,
2013-12-14 12:52:00,29.0,27.0,30.00,North,11,0.0,9.0,92,0.00,,,0.00,weatherlink.com 1.10,2013-12-14 18:52:00,
2013-12-14 13:07:00,29.2,27.0,30.00,NNE,14,4.0,10.0,92,0.00,,,0.00,weatherlink.com 1.10,2013-12-14 19:07:00,
2013-12-14 13:22:00,29.2,27.0,30.00,NNW,334,4.0,8.0,92,0.00,,,0.00,weatherlink.com 1.10,2013-12-14 19:22:00,
2013-12-14 13:37:00,28.4,26.0,30.00,North,5,3.0,9.0,92,0.00,,,0.00,weatherlink.com 1.10,2013-12-14 19:37:00,
2013-12-14 13:52:00,28.0,26.0,30.00,ENE,57,3.0,11.0,91,0.00,,,0.00,weatherlink.com 1.10,2013-12-14 19:52:00,
2013-12-14 14:07:00,28.1,26.0,30.00,NE,35,2.0,7.0,91,0.00,,,0.00,weatherlink.com 1.10,2013-12-14 20:07:00,
2013-12-14 14:23:00,27.7,26.0,30.01,North,9,3.0,10.0,91,0.01,,,0.01,weatherlink.com 1.10,2013-12-14 20:23:00,
2013-12-14 14:38:00,27.5,25.0,30.01,NNE,32,3.0,8.0,91,0.01,,,0.01,weatherlink.com 1.10,2013-12-14 20:38:00,
2013-12-14 14:54:00,27.4,25.0,30.02,NNE,18,5.0,10.0,91,0.01,,,0.01,weatherlink.com 1.10,2013-12-14 20:54:00,
2013-12-14 15:08:00,27.0,25.0,30.03,NE,51,5.0,11.0,91,0.01,,,0.02,weatherlink.com 1.10,2013-12-14 21:08:00,
2013-12-14 15:23:00,26.6,24.0,30.03,North,350,2.0,9.0,90,0.01,,,0.02,weatherlink.com 1.10,2013-12-14 21:23:00,
2013-12-14 15:38:00,25.9,23.0,30.03,North,355,2.0,5.0,90,0.01,,,0.02,weatherlink.com 1.10,2013-12-14 21:38:00,
2013-12-14 15:54:00,25.4,23.0,30.04,NNW,333,3.0,6.0,90,0.01,,,0.02,weatherlink.com 1.10,2013-12-14 21:54:00,
2013-12-14 16:08:00,24.5,22.0,30.05,NNW,333,3.0,6.0,90,0.00,,,0.02,weatherlink.com 1.10,2013-12-14 22:08:00,
2013-12-14 16:23:00,23.7,21.0,30.05,NNW,342,1.0,5.0,90,0.00,,,0.02,weatherlink.com 1.10,2013-12-14 22:23:00,
2013-12-14 16:38:00,23.6,21.0,30.06,NNW,340,1.0,4.0,91,0.00,,,0.02,weatherlink.com 1.10,2013-12-14 22:38:00,
2013-12-14 16:53:00,23.3,21.0,30.06,NNW,332,2.0,6.0,90,0.00,,,0.02,weatherlink.com 1.10,2013-12-14 22:53:00,
2013-12-14 17:08:00,22.9,20.0,30.06,NNW,327,2.0,6.0,90,0.00,,,0.02,weatherlink.com 1.10,2013-12-14 23:08:00,
2013-12-14 17:23:00,22.5,20.0,30.06,NW,320,4.0,7.0,90,0.00,,,0.02,weatherlink.com 1.10,2013-12-14 23:23:00,
2013-12-14 17:39:00,22.4,20.0,30.07,North,355,7.0,8.0,90,0.00,,,0.02,weatherlink.com 1.10,2013-12-14 23:39:00,
2013-12-14 17:54:00,22.2,20.0,30.08,WNW,300,4.0,8.0,90,0.00,,,0.02,weatherlink.com 1.10,2013-12-14 23:54:00,
2013-12-14 18:09:00,21.8,19.0,30.08,NW,325,4.0,7.0,90,0.00,,,0.02,weatherlink.com 1.10,2013-12-15 00:09:00,
2013-12-14 18:24:00,20.9,18.0,30.08,NW,313,2.0,6.0,89,0.00,,,0.02,weatherlink.com 1.10,2013-12-15 00:24:00,
2013-12-14 18:39:00,20.7,18.0,30.09,NW,321,3.0,7.0,90,0.00,,,0.02,weatherlink.com 1.10,2013-12-15 00:39:00,
2013-12-14 18:54:00,20.3,18.0,30.10,NW,321,2.0,6.0,90,0.00,,,0.02,weatherlink.com 1.10,2013-12-15 00:54:00,
2013-12-14 19:09:00,19.6,17.0,30.10,NNW,335,4.0,8.0,89,0.00,,,0.02,weatherlink.com 1.10,2013-12-15 01:09:00,
2013-12-14 19:24:00,19.7,17.0,30.11,WNW,298,6.0,8.0,90,0.00,,,0.02,weatherlink.com 1.10,2013-12-15 01:24:00,
2013-12-14 19:39:00,19.9,18.0,30.11,NW,325,4.0,8.0,90,0.00,,,0.02,weatherlink.com 1.10,2013-12-15 01:39:00,
2013-12-14 19:54:00,19.8,17.0,30.11,NW,311,3.0,6.0,90,0.00,,,0.02,weatherlink.com 1.10,2013-12-15 01:54:00,
2013-12-14 20:09:00,19.4,17.0,30.11,NW,319,5.0,8.0,90,0.00,,,0.02,weatherlink.com 1.10,2013-12-15 02:09:00,
2013-12-14 20:24:00,19.0,17.0,30.11,NW,317,4.0,6.0,90,0.00,,,0.02,weatherlink.com 1.10,2013-12-15 02:24:00,
2013-12-14 20:39:00,19.1,17.0,30.11,North,355,2.0,5.0,90,0.00,,,0.02,weatherlink.com 1.10,2013-12-15 02:39:00,
2013-12-14 20:55:00,18.9,17.0,30.11,WNW,302,2.0,7.0,90,0.00,,,0.02,weatherlink.com 1.10,2013-12-15 02:55:00,
2013-12-14 21:10:00,18.1,15.0,30.11,NNW,338,4.0,4.0,89,0.00,,,0.02,weatherlink.com 1.10,2013-12-15 03:10:00,
2013-12-14 21:25:00,18.5,16.0,30.11,NW,321,3.0,6.0,90,0.00,,,0.02,weatherlink.com 1.10,2013-12-15 03:25:00,
2013-12-14 21:40:00,18.4,16.0,30.11,NW,320,4.0,6.0,90,0.00,,,0.02,weatherlink.com 1.10,2013-12-15 03:40:00,
2013-12-14 21:55:00,18.0,15.0,30.11,WNW,298,1.0,6.0,89,0.00,,,0.02,weatherlink.com 1.10,2013-12-15 03:55:00,
2013-12-14 22:10:00,17.0,15.0,30.11,NW,317,3.0,6.0,90,0.00,,,0.02,weatherlink.com 1.10,2013-12-15 04:10:00,
2013-12-14 22:25:00,16.8,14.0,30.11,NW,305,2.0,7.0,89,0.00,,,0.02,weatherlink.com 1.10,2013-12-15 04:25:00,
2013-12-14 22:40:00,17.2,15.0,30.11,NW,306,3.0,8.0,90,0.00,,,0.02,weatherlink.com 1.10,2013-12-15 04:40:00,
2013-12-14 22:55:00,16.9,14.0,30.11,NNW,330,4.0,10.0,89,0.00,,,0.02,weatherlink.com 1.10,2013-12-15 04:55:00,
2013-12-14 23:10:00,16.3,14.0,30.11,NW,304,5.0,8.0,89,0.00,,,0.00,weatherlink.com 1.10,2013-12-15 05:10:00,
2013-12-14 23:25:00,16.2,13.0,30.11,NW,319,4.0,9.0,88,0.00,,,0.00,weatherlink.com 1.10,2013-12-15 05:25:00,
2013-12-14 23:40:00,15.8,13.0,30.11,NW,305,3.0,10.0,88,0.00,,,0.00,weatherlink.com 1.10,2013-12-15 05:40:00,
2013-12-14 23:55:00,15.3,12.0,30.11,WNW,302,7.0,9.0,88,0.00,,,0.00,weatherlink.com 1.10,2013-12-15 05:55:00,